Time,TemperatureF,DewpointF,PressureIn,WindDirection,WindDirectionDegrees,WindSpeedMPH,WindSpeedGustMPH,Humidity,HourlyPrecipIn,Conditions,Clouds,dailyrainin,SoftwareType,DateUTC
2013-07-13 00:00:00,75.2,74.0,29.98,SE,131,0.0,0.0,96,0.00,,,1.15,Wunderground v.1.15,2013-07-13 04:00:00,
2013-07-13 00:01:00,75.2,74.0,29.98,SE,131,0.0,0.0,96,0.00,,,1.15,Wunderground v.1.15,2013-07-13 04:01:00,
2013-07-13 00:02:00,75.2,74.0,29.98,SE,131,0.0,0.0,96,0.00,,,1.15,Wunderground v.1.15,2013-07-13 04:02:00,
2013-07-13 00:03:00,75.2,74.0,29.98,SE,131,0.0,0.0,96,0.00,,,1.15,Wunderground v.1.15,2013-07-13 04:03:00,
2013-07-13 00:05:00,75.2,74.0,29.98,SE,131,0.0,0.0,96,0.00,,,1.15,Wunderground v.1.15,2013-07-13 04:05:00,
2013-07-13 00:08:00,75.3,74.1,29.97,SE,131,0.0,0.0,96,0.00,,,1.15,Wunderground v.1.15,2013-07-13 04:08:00,
2013-07-13 00:14:00,75.3,74.1,29.98,SE,131,0.0,0.0,96,0.00,,,1.15,Wunderground v.1.15,2013-07-13 04:14:00,
2013-07-13 00:19:00,75.3,74.1,29.98,SE,131,1.0,1.0,96,0.00,,,1.15,Wunderground v.1.15,2013-07-13 04:19:00,
2013-07-13 00:25:00,75.2,74.0,29.98,SE,131,0.0,0.0,96,0.00,,,1.15,Wunderground v.1.15,2013-07-13 04:25:00,
2013-07-13 00:31:00,75.2,74.0,29.98,SE,131,0.0,0.0,96,0.00,,,1.15,Wunderground v.1.15,2013-07-13 04:31:00,
2013-07-13 00:36:00,75.2,74.0,29.98,SE,131,0.0,0.0,96,0.00,,,1.15,Wunderground v.1.15,2013-07-13 04:36:00,
2013-07-13 00:41:00,75.2,74.0,29.98,SE,131,0.0,0.0,96,0.00,,,1.15,Wunderground v.1.15,2013-07-13 04:41:00,
2013-07-13 00:47:00,75.2,74.0,29.98,SE,131,0.0,0.0,96,0.00,,,1.15,Wunderground v.1.15,2013-07-13 04:47:00,
2013-07-13 00:52:00,75.2,74.0,29.98,SE,131,0.0,0.0,96,0.00,,,1.15,Wunderground v.1.15,2013-07-13 04:52:00,
2013-07-13 00:58:00,75.1,73.9,29.98,SE,131,0.0,0.0,96,0.00,,,1.15,Wunderground v.1.15,2013-07-13 04:58:00,
2013-07-13 01:04:00,75.1,73.9,29.98,SE,131,0.0,0.0,96,0.00,,,1.15,Wunderground v.1.15,2013-07-13 05:04:00,
2013-07-13 01:09:00,75.1,73.9,29.98,SE,131,0.0,0.0,96,0.00,,,1.15,Wunderground v.1.15,2013-07-13 05:09:00,
2013-07-13 10:53:00,83.3,76.9,30.11,South,180,10.0,10.0,81,0.00,,,1.24,Wunderground v.1.15,2013-07-13 14:53:00,
2013-07-13 10:58:00,83.5,77.1,30.11,South,171,11.0,14.0,81,0.00,,,1.24,Wunderground v.1.15,2013-07-13 14:58:00,
2013-07-13 11:03:00,83.6,77.1,30.11,South,187,6.0,14.0,81,0.00,,,1.24,Wunderground v.1.15,2013-07-13 15:03:00,
2013-07-13 11:08:00,83.7,77.2,30.11,South,172,11.0,15.0,81,0.00,,,1.24,Wunderground v.1.15,2013-07-13 15:08:00,
2013-07-13 11:13:00,83.8,77.0,30.12,SE,143,8.0,12.0,80,0.00,,,1.24,Wunderground v.1.15,2013-07-13 15:13:00,
2013-07-13 11:18:00,83.8,77.0,30.12,South,180,8.0,15.0,80,0.00,,,1.24,Wunderground v.1.15,2013-07-13 15:18:00,
2013-07-13 11:23:00,84.0,77.5,30.12,South,174,8.0,13.0,81,0.00,,,1.24,Wunderground v.1.15,2013-07-13 15:23:00,
2013-07-13 11:29:00,83.9,77.1,30.12,SSE,168,17.0,18.0,80,0.00,,,1.24,Wunderground v.1.15,2013-07-13 15:29:00,
2013-07-13 11:34:00,84.0,77.2,30.12,South,179,0.0,15.0,80,0.00,,,1.24,Wunderground v.1.15,2013-07-13 15:34:00,
2013-07-13 11:39:00,83.8,77.0,30.12,South,185,10.0,19.0,80,0.00,,,1.24,Wunderground v.1.15,2013-07-13 15:39:00,
2013-07-13 11:44:00,84.0,77.5,30.12,South,173,9.0,12.0,81,0.00,,,1.24,Wunderground v.1.15,2013-07-13 15:44:00,
2013-07-13 11:49:00,83.9,77.4,30.12,SSW,194,8.0,13.0,81,0.00,,,1.24,Wunderground v.1.15,2013-07-13 15:49:00,
2013-07-13 11:54:00,83.8,77.3,30.12,South,184,3.0,13.0,81,0.00,,,1.24,Wunderground v.1.15,2013-07-13 15:54:00,
2013-07-13 11:59:00,83.6,77.1,30.13,South,181,7.0,14.0,81,0.00,,,1.24,Wunderground v.1.15,2013-07-13 15:59:00,
2013-07-13 12:04:00,83.8,77.7,30.13,SSW,204,4.0,11.0,82,0.00,,,1.24,Wunderground v.1.15,2013-07-13 16:04:00,
2013-07-13 12:09:00,83.9,77.4,30.13,South,177,11.0,18.0,81,0.00,,,1.24,Wunderground v.1.15,2013-07-13 16:09:00,
2013-07-13 12:15:00,83.8,77.3,30.13,South,176,2.0,16.0,81,0.00,,,1.24,Wunderground v.1.15,2013-07-13 16:15:00,
2013-07-13 12:20:00,84.0,77.5,30.12,South,175,2.0,18.0,81,0.00,,,0.00,Wunderground v.1.15,2013-07-13 16:20:00,
2013-07-13 12:25:00,84.1,77.6,30.12,South,185,12.0,16.0,81,0.00,,,0.00,Wunderground v.1.15,2013-07-13 16:25:00,
2013-07-13 12:30:00,84.3,77.5,30.12,SSE,163,6.0,8.0,80,0.00,,,0.00,Wunderground v.1.15,2013-07-13 16:30:00,
2013-07-13 12:35:00,84.3,77.1,30.12,SSE,156,5.0,16.0,79,0.00,,,0.00,Wunderground v.1.15,2013-07-13 16:35:00,
2013-07-13 12:40:00,84.3,77.1,30.12,South,179,6.0,10.0,79,0.00,,,0.00,Wunderground v.1.15,2013-07-13 16:40:00,
2013-07-13 12:45:00,84.4,77.2,30.12,South,185,8.0,16.0,79,0.00,,,0.00,Wunderground v.1.15,2013-07-13 16:45:00,
2013-07-13 12:50:00,84.3,77.5,30.12,SSW,193,12.0,12.0,80,0.00,,,0.00,Wunderground v.1.15,2013-07-13 16:50:00,
2013-07-13 12:56:00,84.3,77.1,30.12,South,181,13.0,18.0,79,0.00,,,0.00,Wunderground v.1.15,2013-07-13 16:56:00,
2013-07-13 13:01:00,84.3,77.5,30.12,South,171,9.0,10.0,80,0.00,,,0.00,Wunderground v.1.15,2013-07-13 17:01:00,
2013-07-13 13:06:00,84.4,77.2,30.13,SSE,168,11.0,18.0,79,0.00,,,0.00,Wunderground v.1.15,2013-07-13 17:06:00,
2013-07-13 13:11:00,84.3,77.5,30.12,SSE,166,11.0,11.0,80,0.00,,,0.00,Wunderground v.1.15,2013-07-13 17:11:00,
2013-07-13 13:16:00,84.4,77.6,30.12,SSE,165,4.0,15.0,80,0.00,,,0.00,Wunderground v.1.15,2013-07-13 17:16:00,
2013-07-13 13:21:00,84.3,77.1,30.13,SSW,193,10.0,17.0,79,0.00,,,0.00,Wunderground v.1.15,2013-07-13 17:21:00,
2013-07-13 13:26:00,84.3,77.5,30.13,South,182,18.0,18.0,80,0.00,,,0.00,Wunderground v.1.15,2013-07-13 17:26:00,
2013-07-13 13:31:00,84.4,77.6,30.13,South,175,9.0,19.0,80,0.00,,,0.00,Wunderground v.1.15,2013-07-13 17:31:00,
2013-07-13 13:36:00,84.5,77.6,30.13,South,182,14.0,19.0,80,0.00,,,0.00,Wunderground v.1.15,2013-07-13 17:36:00,
2013-07-13 13:41:00,84.5,77.6,30.13,SSE,153,4.0,9.0,80,0.00,,,0.00,Wunderground v.1.15,2013-07-13 17:41:00,
2013-07-13 13:46:00,84.7,77.8,30.13,South,171,0.0,13.0,80,0.00,,,0.00,Wunderground v.1.15,2013-07-13 17:46:00,
2013-07-13 13:52:00,84.8,77.9,30.13,South,189,10.0,11.0,80,0.00,,,0.00,Wunderground v.1.15,2013-07-13 17:52:00,
2013-07-13 13:57:00,84.8,77.9,30.13,South,186,5.0,15.0,80,0.00,,,0.00,Wunderground v.1.15,2013-07-13 17:57:00,
2013-07-13 14:02:00,84.6,77.7,30.13,SSE,150,6.0,19.0,80,0.00,,,0.00,Wunderground v.1.15,2013-07-13 18:02:00,
2013-07-13 14:07:00,84.3,77.5,30.13,SSE,167,1.0,19.0,80,0.00,,,0.00,Wunderground v.1.15,2013-07-13 18:07:00,
2013-07-13 14:12:00,84.6,77.7,30.13,SSE,161,9.0,10.0,80,0.00,,,0.00,Wunderground v.1.15,2013-07-13 18:12:00,
2013-07-13 14:17:00,84.7,77.8,30.12,SSE,161,5.0,15.0,80,0.00,,,0.00,Wunderground v.1.15,2013-07-13 18:17:00,
2013-07-13 14:22:00,84.8,77.6,30.13,SSE,165,10.0,13.0,79,0.00,,,0.00,Wunderground v.1.15,2013-07-13 18:22:00,
2013-07-13 14:27:00,84.7,77.8,30.12,SSE,156,6.0,14.0,80,0.00,,,0.00,Wunderground v.1.15,2013-07-13 18:27:00,
2013-07-13 14:32:00,84.7,77.8,30.12,SSW,193,10.0,12.0,80,0.00,,,0.00,Wunderground v.1.15,2013-07-13 18:32:00,
2013-07-13 14:37:00,84.8,77.9,30.12,South,177,7.0,15.0,80,0.00,,,0.00,Wunderground v.1.15,2013-07-13 18:37:00,
2013-07-13 14:42:00,84.6,77.7,30.12,South,180,6.0,14.0,80,0.00,,,0.00,Wunderground v.1.15,2013-07-13 18:42:00,
2013-07-13 14:47:00,84.6,77.7,30.13,South,189,12.0,14.0,80,0.00,,,0.00,Wunderground v.1.15,2013-07-13 18:47:00,
2013-07-13 14:52:00,84.8,77.9,30.12,SSE,158,9.0,19.0,80,0.00,,,0.00,Wunderground v.1.15,2013-07-13 18:52:00,
2013-07-13 14:57:00,84.7,77.8,30.12,South,169,7.0,19.0,80,0.00,,,0.00,Wunderground v.1.15,2013-07-13 18:57:00,
2013-07-13 15:03:00,84.8,77.9,30.12,South,182,4.0,12.0,80,0.00,,,0.00,Wunderground v.1.15,2013-07-13 19:03:00,
2013-07-13 15:08:00,84.8,77.9,30.12,South,171,4.0,18.0,80,0.00,,,0.00,Wunderground v.1.15,2013-07-13 19:08:00,
2013-07-13 15:13:00,84.8,77.9,30.12,South,178,9.0,14.0,80,0.00,,,0.00,Wunderground v.1.15,2013-07-13 19:13:00,
2013-07-13 15:18:00,84.8,77.9,30.12,SE,128,13.0,16.0,80,0.00,,,0.00,Wunderground v.1.15,2013-07-13 19:18:00,
2013-07-13 15:23:00,84.6,77.7,30.12,South,190,8.0,13.0,80,0.00,,,0.00,Wunderground v.1.15,2013-07-13 19:23:00,
2013-07-13 15:28:00,84.5,77.6,30.12,SSE,163,2.0,20.0,80,0.00,,,0.00,Wunderground v.1.15,2013-07-13 19:28:00,
2013-07-13 15:33:00,84.6,77.4,30.12,SSW,205,15.0,15.0,79,0.00,,,0.00,Wunderground v.1.15,2013-07-13 19:33:00,
2013-07-13 15:38:00,84.6,76.6,30.12,South,175,2.0,16.0,77,0.00,,,0.00,Wunderground v.1.15,2013-07-13 19:38:00,
2013-07-13 15:43:00,84.8,76.4,30.13,SSW,205,14.0,16.0,76,0.00,,,0.00,Wunderground v.1.15,2013-07-13 19:43:00,
2013-07-13 15:48:00,84.7,76.7,30.13,SSE,166,11.0,19.0,77,0.00,,,0.00,Wunderground v.1.15,2013-07-13 19:48:00,
2013-07-13 15:53:00,84.7,76.7,30.13,South,177,14.0,17.0,77,0.00,,,0.00,Wunderground v.1.15,2013-07-13 19:53:00,
2013-07-13 15:58:00,84.8,77.6,30.14,South,176,13.0,18.0,79,0.00,,,0.00,Wunderground v.1.15,2013-07-13 19:58:00,
2013-07-13 16:03:00,84.7,77.5,30.14,South,171,0.0,15.0,79,0.00,,,0.00,Wunderground v.1.15,2013-07-13 20:03:00,
2013-07-13 16:09:00,84.5,77.6,30.14,South,185,11.0,15.0,80,0.00,,,0.00,Wunderground v.1.15,2013-07-13 20:09:00,
2013-07-13 16:14:00,84.4,77.6,30.14,South,176,15.0,16.0,80,0.00,,,0.00,Wunderground v.1.15,2013-07-13 20:14:00,
2013-07-13 16:19:00,84.4,77.6,30.14,South,174,6.0,18.0,80,0.00,,,0.00,Wunderground v.1.15,2013-07-13 20:19:00,
2013-07-13 16:24:00,84.5,77.6,30.14,South,182,5.0,11.0,80,0.00,,,0.00,Wunderground v.1.15,2013-07-13 20:24:00,
2013-07-13 16:29:00,84.5,77.3,30.14,South,175,11.0,14.0,79,0.00,,,0.00,Wunderground v.1.15,2013-07-13 20:29:00,
2013-07-13 16:34:00,84.7,77.5,30.14,SSE,165,9.0,12.0,79,0.00,,,0.00,Wunderground v.1.15,2013-07-13 20:34:00,
2013-07-13 16:39:00,84.4,77.2,30.14,SSE,165,13.0,17.0,79,0.00,,,0.00,Wunderground v.1.15,2013-07-13 20:39:00,
2013-07-13 16:44:00,84.1,76.9,30.14,SSW,194,10.0,17.0,79,0.00,,,0.00,Wunderground v.1.15,2013-07-13 20:44:00,
2013-07-13 16:50:00,84.1,76.9,30.14,South,185,13.0,17.0,79,0.00,,,0.00,Wunderground v.1.15,2013-07-13 20:50:00,
2013-07-13 16:55:00,84.2,77.0,30.14,South,171,0.0,17.0,79,0.00,,,0.00,Wunderground v.1.15,2013-07-13 20:55:00,
2013-07-13 17:00:00,84.3,77.1,30.13,South,180,13.0,17.0,79,0.00,,,0.00,Wunderground v.1.15,2013-07-13 21:00:00,
2013-07-13 17:05:00,84.3,77.5,30.13,SSE,148,1.0,13.0,80,0.00,,,0.00,Wunderground v.1.15,2013-07-13 21:05:00,
2013-07-13 17:10:00,84.2,77.4,30.13,South,176,9.0,18.0,80,0.00,,,0.00,Wunderground v.1.15,2013-07-13 21:10:00,
2013-07-13 17:15:00,84.2,77.4,30.13,South,187,1.0,16.0,80,0.00,,,0.00,Wunderground v.1.15,2013-07-13 21:15:00,
2013-07-13 17:20:00,84.1,77.6,30.13,South,172,10.0,11.0,81,0.00,,,0.00,Wunderground v.1.15,2013-07-13 21:20:00,
2013-07-13 17:25:00,84.0,77.5,30.13,South,180,11.0,12.0,81,0.00,,,0.00,Wunderground v.1.15,2013-07-13 21:25:00,
2013-07-13 17:30:00,83.9,77.4,30.13,South,180,11.0,11.0,81,0.00,,,0.00,Wunderground v.1.15,2013-07-13 21:30:00,
2013-07-13 17:36:00,83.7,77.6,30.13,South,170,7.0,13.0,82,0.00,,,0.00,Wunderground v.1.15,2013-07-13 21:36:00,
2013-07-13 17:41:00,83.7,78.0,30.13,South,190,5.0,14.0,83,0.00,,,0.00,Wunderground v.1.15,2013-07-13 21:41:00,
2013-07-13 17:46:00,83.7,78.0,30.13,SSE,166,0.0,19.0,83,0.00,,,0.00,Wunderground v.1.15,2013-07-13 21:46:00,
2013-07-13 17:51:00,83.8,78.1,30.13,SSW,192,8.0,8.0,83,0.00,,,0.00,Wunderground v.1.15,2013-07-13 21:51:00,
2013-07-13 17:56:00,83.7,78.0,30.13,South,180,8.0,12.0,83,0.00,,,0.00,Wunderground v.1.15,2013-07-13 21:56:00,
2013-07-13 18:01:00,83.5,77.8,30.14,South,187,8.0,9.0,83,0.00,,,0.00,Wunderground v.1.15,2013-07-13 22:01:00,
2013-07-13 18:06:00,83.5,78.2,30.13,South,176,11.0,11.0,84,0.00,,,0.00,Wunderground v.1.15,2013-07-13 22:06:00,
2013-07-13 18:11:00,83.4,77.7,30.14,South,181,4.0,11.0,83,0.00,,,0.00,Wunderground v.1.15,2013-07-13 22:11:00,
2013-07-13 18:17:00,83.2,77.9,30.14,SSW,198,9.0,12.0,84,0.00,,,0.00,Wunderground v.1.15,2013-07-13 22:17:00,
2013-07-13 18:22:00,83.2,77.9,30.14,South,169,7.0,8.0,84,0.00,,,0.00,Wunderground v.1.15,2013-07-13 22:22:00,
2013-07-13 18:27:00,82.7,77.4,30.14,South,184,7.0,13.0,84,0.00,,,0.00,Wunderground v.1.15,2013-07-13 22:27:00,
2013-07-13 18:32:00,82.7,77.4,30.14,SSW,193,5.0,8.0,84,0.00,,,0.00,Wunderground v.1.15,2013-07-13 22:32:00,
2013-07-13 18:37:00,82.9,77.6,30.14,South,180,7.0,9.0,84,0.00,,,0.00,Wunderground v.1.15,2013-07-13 22:37:00,
2013-07-13 18:42:00,83.0,77.7,30.14,South,175,3.0,12.0,84,0.00,,,0.00,Wunderground v.1.15,2013-07-13 22:42:00,
2013-07-13 18:47:00,83.2,77.9,30.15,South,175,1.0,12.0,84,0.00,,,0.00,Wunderground v.1.15,2013-07-13 22:47:00,
2013-07-13 18:52:00,83.0,77.7,30.15,SSE,167,6.0,10.0,84,0.00,,,0.00,Wunderground v.1.15,2013-07-13 22:52:00,
2013-07-13 18:57:00,82.8,77.5,30.15,South,190,3.0,10.0,84,0.00,,,0.00,Wunderground v.1.15,2013-07-13 22:57:00,
2013-07-13 19:03:00,82.7,77.7,30.15,SSW,194,7.0,11.0,85,0.00,,,0.00,Wunderground v.1.15,2013-07-13 23:03:00,
2013-07-13 19:08:00,82.5,77.5,30.15,SSW,197,7.0,11.0,85,0.00,,,0.00,Wunderground v.1.15,2013-07-13 23:08:00,
2013-07-13 19:13:00,82.1,77.1,30.15,South,184,5.0,7.0,85,0.00,,,0.00,Wunderground v.1.15,2013-07-13 23:13:00,
2013-07-13 19:18:00,81.7,77.1,30.15,South,189,8.0,8.0,86,0.00,,,0.00,Wunderground v.1.15,2013-07-13 23:18:00,
2013-07-13 19:23:00,81.4,76.5,30.15,SSW,199,4.0,8.0,85,0.00,,,0.00,Wunderground v.1.15,2013-07-13 23:23:00,
2013-07-13 19:28:00,81.2,75.9,30.16,SSW,198,4.0,8.0,84,0.00,,,0.00,Wunderground v.1.15,2013-07-13 23:28:00,
2013-07-13 19:33:00,81.2,75.5,30.16,SSW,198,0.0,6.0,83,0.00,,,0.00,Wunderground v.1.15,2013-07-13 23:33:00,
2013-07-13 19:38:00,81.2,75.5,30.16,SSW,198,0.0,6.0,83,0.00,,,0.00,Wunderground v.1.15,2013-07-13 23:38:00,
2013-07-13 19:43:00,81.1,75.4,30.16,SSW,198,4.0,6.0,83,0.00,,,0.00,Wunderground v.1.15,2013-07-13 23:43:00,
2013-07-13 19:49:00,81.0,75.7,30.16,SSW,198,0.0,6.0,84,0.00,,,0.00,Wunderground v.1.15,2013-07-13 23:49:00,
2013-07-13 19:54:00,80.8,75.5,30.16,SSW,198,3.0,4.0,84,0.00,,,0.00,Wunderground v.1.15,2013-07-13 23:54:00,
2013-07-13 19:59:00,80.7,75.8,30.17,SSW,198,0.0,7.0,85,0.00,,,0.00,Wunderground v.1.15,2013-07-13 23:59:00,
2013-07-13 20:04:00,80.5,75.9,30.17,SSW,198,0.0,7.0,86,0.00,,,0.01,Wunderground v.1.15,2013-07-14 00:04:00,
2013-07-13 20:09:00,79.8,75.2,30.17,SSW,193,5.0,7.0,86,0.08,,,0.02,Wunderground v.1.15,2013-07-14 00:09:00,
2013-07-13 20:14:00,79.0,74.8,30.17,South,186,3.0,6.0,87,0.08,,,0.02,Wunderground v.1.15,2013-07-14 00:14:00,
2013-07-13 20:19:00,78.5,74.6,30.17,South,186,4.0,7.0,88,0.05,,,0.02,Wunderground v.1.15,2013-07-14 00:19:00,
2013-07-13 20:24:00,78.3,74.5,30.16,South,186,1.0,4.0,88,0.00,,,0.02,Wunderground v.1.15,2013-07-14 00:24:00,
2013-07-13 20:29:00,78.2,74.7,30.16,South,186,1.0,4.0,89,0.00,,,0.02,Wunderground v.1.15,2013-07-14 00:29:00,
2013-07-13 20:35:00,78.0,74.5,30.16,South,186,0.0,3.0,89,0.00,,,0.02,Wunderground v.1.15,2013-07-14 00:35:00,
2013-07-13 20:40:00,78.0,74.5,30.17,South,169,1.0,9.0,89,0.00,,,0.02,Wunderground v.1.15,2013-07-14 00:40:00,
2013-07-13 20:45:00,78.1,74.9,30.16,South,169,2.0,6.0,90,0.00,,,0.02,Wunderground v.1.15,2013-07-14 00:45:00,
2013-07-13 20:50:00,78.0,74.8,30.16,South,171,1.0,10.0,90,0.00,,,0.02,Wunderground v.1.15,2013-07-14 00:50:00,
2013-07-13 20:55:00,77.6,74.1,30.17,South,171,0.0,6.0,89,0.00,,,0.02,Wunderground v.1.15,2013-07-14 00:55:00,
2013-07-13 21:00:00,77.5,74.3,30.17,South,171,1.0,6.0,90,0.00,,,0.02,Wunderground v.1.15,2013-07-14 01:00:00,
2013-07-13 21:05:00,77.4,74.2,30.17,South,171,0.0,4.0,90,0.00,,,0.02,Wunderground v.1.15,2013-07-14 01:05:00,
2013-07-13 21:10:00,77.4,74.2,30.17,South,171,0.0,1.0,90,0.00,,,0.02,Wunderground v.1.15,2013-07-14 01:10:00,
2013-07-13 21:11:00,77.4,74.2,30.17,South,171,0.0,1.0,90,0.00,,,0.02,Wunderground v.1.15,2013-07-14 01:11:00,
2013-07-13 21:16:00,77.4,74.2,30.17,South,171,1.0,4.0,90,0.00,,,0.02,Wunderground v.1.15,2013-07-14 01:16:00,
2013-07-13 21:21:00,77.4,74.2,30.17,South,171,0.0,1.0,90,0.00,,,0.02,Wunderground v.1.15,2013-07-14 01:21:00,
2013-07-13 21:26:00,77.4,74.2,30.18,South,171,1.0,5.0,90,0.00,,,0.02,Wunderground v.1.15,2013-07-14 01:26:00,
2013-07-13 21:32:00,77.5,74.7,30.18,South,171,0.0,2.0,91,0.00,,,0.02,Wunderground v.1.15,2013-07-14 01:32:00,
2013-07-13 21:37:00,77.5,74.7,30.18,South,171,0.0,2.0,91,0.00,,,0.02,Wunderground v.1.15,2013-07-14 01:37:00,
2013-07-13 21:42:00,77.6,74.8,30.18,South,171,0.0,1.0,91,0.00,,,0.02,Wunderground v.1.15,2013-07-14 01:42:00,
2013-07-13 21:47:00,77.7,74.9,30.19,South,171,0.0,1.0,91,0.00,,,0.02,Wunderground v.1.15,2013-07-14 01:47:00,
2013-07-13 21:52:00,77.7,74.9,30.19,South,171,0.0,1.0,91,0.00,,,0.02,Wunderground v.1.15,2013-07-14 01:52:00,
2013-07-13 21:57:00,77.7,74.9,30.19,South,171,0.0,2.0,91,0.00,,,0.02,Wunderground v.1.15,2013-07-14 01:57:00,
2013-07-13 22:02:00,77.8,75.0,30.19,South,171,0.0,0.0,91,0.00,,,0.02,Wunderground v.1.15,2013-07-14 02:02:00,
2013-07-13 22:07:00,77.8,75.0,30.20,South,171,0.0,0.0,91,0.00,,,0.02,Wunderground v.1.15,2013-07-14 02:07:00,
2013-07-13 22:13:00,77.8,75.3,30.19,South,171,0.0,0.0,92,0.00,,,0.02,Wunderground v.1.15,2013-07-14 02:13:00,
2013-07-13 22:18:00,77.8,75.3,30.19,South,171,0.0,0.0,92,0.00,,,0.02,Wunderground v.1.15,2013-07-14 02:18:00,
2013-07-13 22:23:00,77.7,75.2,30.19,South,171,0.0,0.0,92,0.00,,,0.02,Wunderground v.1.15,2013-07-14 02:23:00,
2013-07-13 22:28:00,77.7,75.2,30.19,South,171,0.0,0.0,92,0.00,,,0.02,Wunderground v.1.15,2013-07-14 02:28:00,
2013-07-13 22:33:00,77.6,75.1,30.19,South,171,0.0,0.0,92,0.00,,,0.02,Wunderground v.1.15,2013-07-14 02:33:00,
2013-07-13 22:38:00,77.6,75.1,30.19,South,171,0.0,0.0,92,0.00,,,0.02,Wunderground v.1.15,2013-07-14 02:38:00,
2013-07-13 22:43:00,77.6,75.1,30.19,South,171,0.0,0.0,92,0.00,,,0.02,Wunderground v.1.15,2013-07-14 02:43:00,
2013-07-13 22:48:00,77.5,75.3,30.19,South,171,0.0,2.0,93,0.00,,,0.02,Wunderground v.1.15,2013-07-14 02:48:00,
2013-07-13 22:53:00,77.5,75.3,30.20,South,171,0.0,1.0,93,0.00,,,0.02,Wunderground v.1.15,2013-07-14 02:53:00,
2013-07-13 22:59:00,77.4,75.2,30.20,South,171,0.0,1.0,93,0.00,,,0.02,Wunderground v.1.15,2013-07-14 02:59:00,
2013-07-13 23:04:00,77.4,75.2,30.20,South,171,1.0,2.0,93,0.00,,,0.02,Wunderground v.1.15,2013-07-14 03:04:00,
2013-07-13 23:09:00,77.4,75.2,30.20,South,171,1.0,4.0,93,0.00,,,0.03,Wunderground v.1.15,2013-07-14 03:09:00,
2013-07-13 23:14:00,77.3,75.1,30.20,South,171,0.0,0.0,93,0.00,,,0.03,Wunderground v.1.15,2013-07-14 03:14:00,
2013-07-13 23:19:00,77.3,75.1,30.20,South,171,0.0,1.0,93,0.00,,,0.03,Wunderground v.1.15,2013-07-14 03:19:00,
2013-07-13 23:24:00,77.3,75.1,30.21,South,171,1.0,1.0,93,0.00,,,0.03,Wunderground v.1.15,2013-07-14 03:24:00,
2013-07-13 23:29:00,77.3,75.1,30.20,South,171,0.0,2.0,93,0.00,,,0.03,Wunderground v.1.15,2013-07-14 03:29:00,
2013-07-13 23:35:00,77.3,75.1,30.21,South,171,0.0,0.0,93,0.00,,,0.03,Wunderground v.1.15,2013-07-14 03:35:00,
2013-07-13 23:40:00,77.3,75.1,30.21,South,171,0.0,0.0,93,0.00,,,0.03,Wunderground v.1.15,2013-07-14 03:40:00,
2013-07-13 23:45:00,77.3,75.1,30.21,South,171,0.0,2.0,93,0.00,,,0.03,Wunderground v.1.15,2013-07-14 03:45:00,
2013-07-13 23:50:00,77.2,75.0,30.21,South,171,0.0,0.0,93,0.00,,,0.03,Wunderground v.1.15,2013-07-14 03:50:00,
2013-07-13 23:55:00,77.2,75.0,30.21,South,171,0.0,2.0,93,0.00,,,0.03,Wunderground v.1.15,2013-07-14 03:55:00,